Location: Bois de la Silve
(44.4667°N, 6.7833°E)
Time: 04:23:51
(UTC+00:00)

Cosmos 2322 Rocket - Pass Details

Date: 14 July 2020
Orbit: 832 x 851 km, 71.0° (Epoch: 06 August)

Event Time Altitude Azimuth Distance (km) Brightness Sun altitude
Rises 02:44:27 0° 339° (NNW) 3,405 5.7 -11.5°
Reaches altitude 10° 02:47:02 10° 346° (NNW) 2,470 5.1 -11.2°
Maximum altitude 02:52:25 43° 57° (ENE) 1,169 3.6 -10.5°
Drops below altitude 10° 02:57:49 10° 129° (SE) 2,467 4.7 -9.8°
Sets 03:00:23 0° 136° (SE) 3,401 5.4 -9.5°
